Hourly Data Report for April 26, 2021

CLYDE RIVER A
NUNAVUT
Current Station Operator: NAVCAN

70°29'09.000" N
68°31'01.000" W
26.50 m
2400804
71090
YCY

Download Data

Hourly Data (April 2021)
Hourly Data Report for April 26, 2021
TIME
LST
Temp Definition
°C
Dew Point Definition
°C
Rel Hum Definition
%
Precip. Amount Definition
mm

Wind Dir Definition
10's deg

Wind Spd Definition
km/h
Visibility Definition
km
Stn Press Definition
kPa
Hmdx Definition


Wind Chill Definition


Weather Definition


00:00 -5.3 -5.7 97 0.0 32 22 16.1 101.44   -12 LegendNANA
01:00 -5.1 -5.2 99 0.0 30 18 8.1 101.51   -11 Snow
02:00 -5.4 -5.8 97 0.0 32 11 16.1 101.52   -10 LegendNANA
03:00 -4.9 -5.2 98 0.0 LegendMM 4 16.1 101.56   -7 LegendNANA
04:00 -5.3 -5.6 98 0.0 LegendMM 4 16.1 101.62   -7 LegendNANA
05:00 -5.7 -6.1 97 0.0 26 8 16.1 101.68   -9 LegendNANA
06:00 -5.5 -5.8 98 0.0 25 5 16.1 101.71   -8 LegendNANA
07:00 -5.1 -5.4 98 0.0 25 4 16.1 101.74   -7 LegendNANA
08:00 -5.0 -5.1 99 0.0 11 5 16.1 101.78   -7 LegendNANA
09:00 -4.5 -4.6 99 0.0 12 9 14.5 101.81   -8 LegendNANA
10:00 -4.3 -4.3 100 0.0   0 3.2 101.79     Fog
11:00 -4.1 -4.6 96 0.0   0 16.1 101.77     LegendNANA
12:00 -3.3 -4.0 95 0.0 22 4 16.1 101.76   -5 LegendNANA
13:00 -3.7 -4.4 95 0.0   0 16.1 101.79     LegendNANA
14:00 -3.7 -4.1 97 0.0   0 16.1 101.76     LegendNANA
15:00 -3.8 -3.9 99 0.0   0 16.1 101.74     LegendNANA
16:00 -3.7 -3.8 99 0.0 LegendMM 4 16.1 101.74   -5 Snow
17:00 -3.8 -4.1 98 0.0 6 5 2.8 101.74   -6 Snow
18:00 -3.9 -4.2 98 0.0 4 4 14.5 101.72   -6 Snow
19:00 -3.9 -4.0 99 0.2 6 8 4.0 101.72   -7 Snow
20:00 -4.1 -4.2 99 0.2 5 4 3.6 101.72   -6 Snow
21:00 -4.1 -4.2 99 0.2 36 4 3.2 101.69   -6 Snow
22:00 -4.2 -4.2 100 0.0 30 4 4.0 101.68   -6 Snow
23:00 -4.1 -4.1 100 0.5 30 5 2.8 101.65   -6 Snow

Notes on Data Quality.

Legend

  • E = Estimated
  • M = Missing
  • NA = Not Available*
  • [empty] = Indicates an unobserved value
Date modified: